KG5VSR Weather Reports


time (UTC)temp
F
wind
direction
speed
knots
gust
knots
rain 1hr
in
rain 24hr
in
rain mn
in
humidity
%
barometer
mb
20260906171825 96 16 0.0 0.9 0.00 0.00 0.00 54 1014.7
20260906164825 93 213 0.9 0.9 0.00 0.00 0.00 60 1015.0
20260906161820 92 138 0.0 0.0 0.00 0.00 0.00 63 1015.0
20260906154819 92 298 0.0 0.0 0.00 0.00 0.00 65 1015.2
20260906151819 89 34 2.6 2.6 0.00 0.00 0.00 71 1015.0
20260906144816 86 130 0.9 1.7 0.00 0.00 0.00 76 1014.9
20260906141814 85 319 0.0 0.0 0.00 0.00 0.00 79 1014.9
20260906134815 83 158 0.0 0.0 0.00 0.00 0.00 83 1014.9
20260906131810 81 3 0.0 0.0 0.00 0.00 0.00 86 1014.5
20260906124809 79 217 0.0 0.0 0.00 0.00 0.00 92 1014.2
20260906121809 77 310 0.0 0.0 0.00 0.00 0.00 96 1014.1
20260906114804 77 310 0.0 0.0 0.00 0.00 0.00 95 1014.1
20260906111802 77 310 0.0 0.0 0.00 0.00 0.00 94 1013.8
20260906104800 77 310 0.0 0.0 0.00 0.00 0.00 93 1013.6
20260906101759 78 312 0.0 0.0 0.00 0.00 0.00 93 1013.5
20260906094756 78 231 0.0 0.0 0.00 0.00 0.00 92 1013.3
20260906091751 79 231 0.0 0.0 0.00 0.00 0.00 91 1013.1
20260906084748 79 231 0.0 0.0 0.00 0.00 0.00 90 1012.7
20260906081748 80 201 0.0 0.0 0.00 0.00 0.00 89 1012.9
20260906074742 80 266 0.0 0.0 0.00 0.00 0.00 88 1013.2
20260906071740 81 204 0.0 0.0 0.00 0.00 0.00 87 1013.2
20260906064741 82 251 0.0 0.0 0.00 0.00 0.00 85 1013.0
20260906061740 82 187 0.9 1.7 0.00 0.00 0.00 83 1013.2
20260906054738 83 162 3.5 4.3 0.00 0.00 0.00 81 1013.6
20260906051737 83 90 1.7 1.7 0.00 0.00 0.00 78 1013.4
20260906044734 84 160 0.9 0.9 0.00 0.00 0.00 76 1013.1
20260906041733 85 38 0.0 0.0 0.00 0.00 0.00 74 1013.2
20260906034733 85 172 3.5 4.3 0.00 0.00 0.00 74 1013.3
20260906031733 86 214 0.0 0.0 0.00 0.00 0.00 73 1013.4
20260906024728 86 201 0.9 0.9 0.00 0.00 0.00 72 1013.4
20260906021729 87 196 0.9 0.9 0.00 0.00 0.00 69 1013.0
20260906014728 88 212 0.0 0.9 0.00 0.00 0.00 66 1012.6
20260906011728 88 257 0.0 0.0 0.00 0.00 0.00 65 1011.8
20260906004725 91 210 0.9 1.7 0.00 0.00 0.00 62 1012.1
20260906001724 94 197 2.6 2.6 0.00 0.00 0.00 55 1011.4
20260905234722 97 171 2.6 2.6 0.00 0.00 0.00 48 1011.1
20260905231721 98 62 1.7 2.6 0.00 0.00 0.00 47 1011.0
20260905224716 100 69 0.0 0.0 0.00 0.00 0.00 46 1010.8
20260905221712 99 93 2.6 2.6 0.00 0.00 0.00 46 1010.8
20260905214709 98 160 1.7 2.6 0.00 0.00 0.00 47 1011.1
20260905211708 100 9 2.6 6.1 0.00 0.00 0.00 46 1011.1
20260905204704 101 194 0.9 0.9 0.00 0.00 0.00 44 1011.7
20260905201704 98 182 0.9 1.7 0.00 0.00 0.00 47 1012.1
20260905194702 98 336 2.6 2.6 0.00 0.00 0.00 47 1012.6
20260905191659 100 262 0.9 0.9 0.00 0.00 0.00 45 1013.2
20260905184654 99 185 0.9 1.7 0.00 0.00 0.00 46 1013.6
20260905181650 99 84 1.7 1.7 0.00 0.00 0.00 47 1014.0
20260905174647 98 262 0.9 0.9 0.00 0.00 0.00 49 1015.0